Flag for Germany Weather past 2 weeks in Forchheim, Bavaria, Germany

Now
38 °F

Passing clouds.


Feels Like: 32 °F
Forecast: 31 / 45 °F
Wind: 8 mph from Northwest

Location: Bamberg

Current Time: Mar 5, 2015 at 9:46:15 AM

Latest Report: Mar 5, 2015 at 9:00 AM


Visibility: 18 mi

Pressure: 30.55 "Hg

Humidity: 68%

Dew point: 28 °F

Location of ForchheimLocation

Historic Weather in Forchheim — Graph

°F

Forchheim temperature yesterday

Maximum temperature yesterday: 43 °F (at 3:00 PM)
Minimum temperature yesterday: 31 °F (at 7:00 AM)
Average temperature yesterday: 38 °F

Past Weeks' High & Low Weather Summary

 TemperatureHumidityPressure
High53 °F (Feb 20, 4:00 PM)98% (Feb 24, 12:00 AM)30.79 "Hg (Feb 24, 12:00 AM)
Low21 °F (Feb 27, 7:00 AM)42% (Feb 26, 2:00 PM)29.50 "Hg (Feb 21, 12:00 PM)
Average37 °F79%30.03 "Hg
* Reported Feb 18 9:00 AM — Mar 5 9:00 AM, Forchheim, Weather by CustomWeather, © 2015

Note: Actual official high and low records may vary slightly from our data, if they occured in-between our weather recording intervals... More about our weather records

Advertising

Forchheim weather history for previous 24 hours

 ConditionsComfort  
Time TempWeatherWind HumidityBarometerVisibility
9:00 AM
Thu, Mar 5
38 °FPassing clouds.8 mph68%30.55 "Hg18 mi
8:00 AM37 °FOvercast.6 mph73%30.53 "Hg31 mi
7:00 AM37 °FOvercast.6 mph77%30.50 "Hg25 mi
6:00 AM36 °FOvercast.3 mph86%30.49 "Hg18 mi
5:00 AM36 °FDrizzle. Overcast.2 mph84%30.47 "Hg11 mi
4:00 AM36 °FLight rain. Passing clouds.3 mph82%30.46 "Hg9 mi
3:00 AM35 °FLight rain. Passing clouds.2 mph87%30.44 "Hg7 mi
2:00 AM35 °FLight rain. Overcast.5 mph87%30.43 "Hg11 mi
1:00 AM34 °FOvercast.2 mph90%30.43 "Hg14 mi
12:00 AM34 °FPassing clouds.2 mph92%30.42 "Hg15 mi
11:00 PM
Wed, Mar 4
34 °FPassing clouds.3 mph91%30.41 "Hg25 mi
10:00 PM35 °FClear.3 mph85%30.40 "Hg34 mi
9:00 PM37 °FPassing clouds.3 mph73%30.38 "Hg31 mi
8:00 PM37 °FPassing clouds.2 mph69%30.36 "Hg37 mi
7:00 PM39 °FPassing clouds.2 mph64%30.35 "Hg40 mi
6:00 PM42 °FOvercast.2 mph56%30.32 "Hg43 mi
5:00 PM42 °FOvercast.5 mph56%30.32 "Hg43 mi
4:00 PM43 °FOvercast.7 mph53%30.30 "Hg43 mi
3:00 PM43 °FOvercast.7 mph49%30.29 "Hg37 mi
2:00 PM43 °FOvercast.6 mph52%30.29 "Hg43 mi
1:00 PM43 °FOvercast.6 mph56%30.30 "Hg40 mi
12:00 PM41 °FScattered clouds.5 mph66%30.30 "Hg34 mi
11:00 AM40 °FOvercast.5 mph72%30.30 "Hg31 mi
10:00 AM38 °FOvercast.3 mph78%30.30 "Hg22 mi
9:00 AM37 °FPartly sunny.2 mph80%30.28 "Hg16 mi
Weather by CustomWeather, © 2015

See weather overviewHow to use our weather pages